1513040400.46,25476,4.94,71990.8,-1.23,-18.31,-17.55,0,*5F
1513040401.72,25477,4.94,71978.3,-1.23,-18.21,-17.55,0,*5F
1513040403.0,25478,4.94,71960.8,-1.23,-18.31,-17.55,0,*51
1513040404.26,25479,4.88,71970.3,-1.23,-18.21,-17.41,0,*54
1513040405.54,25480,4.94,71930.0,-1.23,-17.93,-17.17,0,*57
1513040406.82,25481,4.88,71956.8,-1.23,-18.01,-17.17,0,*52
1513040408.05,25482,4.94,71958.3,-1.21,-17.21,-16.45,0,*58
1513040409.28,25483,4.94,71986.5,-1.21,-17.83,-17.11,0,*51
1513040410.54,25484,4.88,72022.5,-1.19,-17.83,-17.07,0,*5A
1513040411.78,25485,4.94,72016.5,-1.21,-17.97,-17.35,0,*54
1513040413.04,25486,4.94,72054.3,-1.21,-18.01,-17.21,0,*52
1513040414.26,25487,4.88,72050.5,-1.21,-17.79,-16.97,0,*5F
1513040415.52,25488,4.88,72054.8,-1.21,-18.01,-17.25,0,*58
1513040416.77,25489,4.94,72084.0,-1.19,-17.21,-16.55,0,*59
1513040418.0,25490,4.94,72056.8,-1.19,-16.75,-15.99,0,*52
1513040419.23,25491,4.88,72036.0,-1.17,-17.45,-16.79,0,*52
1513040420.48,25492,4.94,72052.0,-1.17,-17.79,-17.03,0,*52
1513040421.7,25493,4.94,72058.5,-1.17,-17.79,-16.89,0,*50
1513040422.94,25494,4.88,72044.0,-1.17,-17.45,-16.75,0,*5B
1513040424.17,25495,4.94,71992.5,-1.17,-17.87,-17.17,0,*51
1513040425.4,25496,4.88,71982.0,-1.15,-18.21,-17.45,0,*54
1513040426.67,25497,4.94,71974.8,-1.15,-18.35,-17.59,0,*5D
1513040427.89,25498,4.88,71976.8,-1.17,-18.49,-17.63,0,*52
1513040429.13,25499,4.88,71988.3,-1.15,-18.45,-17.59,0,*54
1513040430.35,25500,4.94,71994.3,-1.15,-18.49,-17.69,0,*5A
1513040431.55,25501,4.88,71988.3,-1.17,-18.65,-17.73,0,*5C
1513040432.77,25502,4.88,71992.5,-1.17,-18.35,-17.49,0,*53
1513040434.03,25503,4.94,71984.8,-1.17,-18.35,-17.45,0,*5E
1513040435.26,25504,4.94,71978.3,-1.15,-17.93,-16.97,0,*56
1513040436.51,25505,4.88,71974.0,-1.15,-17.41,-16.55,0,*56
1513040437.72,25506,4.94,71988.3,-1.17,-17.79,-16.89,0,*5D
1513040438.99,25507,4.88,72002.5,-1.15,-18.31,-17.45,0,*5C
1513040440.25,25508,4.94,72002.3,-1.15,-18.59,-17.79,0,*52
1513040441.49,25509,4.94,72010.8,-1.15,-18.79,-17.93,0,*55
1513040442.73,25510,4.94,72002.0,-1.15,-18.83,-18.01,0,*5C
1513040443.94,25511,4.94,71998.8,-1.15,-18.99,-18.17,0,*51
1513040445.16,25512,4.94,72016.3,-1.17,-18.89,-18.07,0,*50
1513040446.41,25513,4.94,71982.0,-1.17,-18.89,-17.93,0,*53
1513040447.61,25514,4.94,71990.8,-1.17,-18.65,-17.73,0,*58
1513040448.81,25515,4.94,71988.8,-1.17,-18.73,-17.83,0,*51
1513040450.06,25516,4.94,71924.5,-1.17,-18.89,-17.93,0,*56
1513040451.3,25517,4.88,71914.5,-1.17,-18.89,-17.93,0,*57
1513040452.52,25518,4.94,71974.3,-1.17,-19.03,-17.93,0,*5B
1513040453.78,25519,4.94,71978.0,-1.19,-18.83,-17.79,0,*59
1513040455.03,25520,4.88,71914.3,-1.19,-18.89,-17.83,0,*5C
1513040456.28,25521,4.88,71950.3,-1.19,-18.83,-17.79,0,*52
1513040457.54,25522,4.88,71960.8,-1.19,-19.03,-17.97,0,*58
1513040458.8,25523,4.94,71980.5,-1.19,-18.99,-17.79,0,*5B
1513040460.05,25524,4.94,71994.5,-1.21,-18.55,-17.55,0,*59
1513040461.3,25525,4.94,72016.0,-1.19,-18.35,-17.31,0,*57
1513040462.55,25526,4.88,71978.0,-1.19,-18.55,-17.49,0,*5D
1513040463.8,25527,4.88,71974.3,-1.19,-18.35,-17.49,0,*5A
1513040465.03,25528,4.94,72002.5,-1.21,-18.41,-17.41,0,*55
1513040466.26,25529,4.88,71982.8,-1.19,-18.41,-17.49,0,*57
1513040467.49,25530,4.94,71992.3,-1.17,-18.65,-17.63,0,*5F
1513040468.72,25531,4.88,71968.5,-1.21,-18.25,-17.45,0,*5B
1513040469.95,25532,4.88,71974.0,-1.21,-18.69,-17.55,0,*51
1513040471.21,25533,4.88,72006.3,-1.19,-18.49,-17.45,0,*58
1513040472.46,25534,4.94,72012.5,-1.19,-18.31,-17.31,0,*53
1513040473.72,25535,4.88,72020.5,-1.19,-18.35,-17.35,0,*52
1513040474.95,25536,4.94,72026.0,-1.21,-18.45,-17.41,0,*5E
1513040476.2,25537,4.88,72044.8,-1.19,-18.55,-17.49,0,*5D
1513040477.45,25538,4.94,72046.5,-1.21,-18.59,-17.55,0,*58
1513040478.72,25539,4.94,72034.0,-1.19,-18.35,-17.35,0,*5E
1513040479.97,25540,4.94,72040.0,-1.21,-18.55,-17.55,0,*5B
1513040481.22,25541,4.94,72028.8,-1.19,-18.11,-17.21,0,*52
1513040482.45,25542,4.94,72044.3,-1.19,-18.11,-16.97,0,*5D
1513040483.67,25543,4.88,72032.5,-1.21,-18.17,-17.17,0,*58
1513040484.88,25544,4.88,72042.0,-1.21,-17.87,-16.79,0,*50
1513040486.16,25545,4.88,72058.3,-1.19,-17.79,-16.69,0,*5A
1513040487.41,25546,4.94,72032.5,-1.19,-17.63,-16.55,0,*5D
1513040488.69,25547,4.94,72054.0,-1.19,-17.21,-16.17,0,*5C
1513040489.94,25548,4.88,72052.3,-1.19,-17.73,-16.69,0,*5D
1513040491.17,25549,4.94,72036.5,-1.17,-17.97,-16.93,0,*5D
1513040492.39,25550,4.94,72070.3,-1.15,-17.87,-16.75,0,*5E
1513040493.59,25551,4.94,72068.8,-1.17,-17.49,-16.55,0,*5D
1513040494.8,25552,4.88,72038.5,-1.15,-17.31,-16.41,0,*56
1513040496.01,25553,4.94,72014.3,-1.15,-17.31,-16.41,0,*57
1513040497.24,25554,4.94,72032.5,-1.15,-17.69,-16.65,0,*5B
1513040498.49,25555,4.94,72026.5,-1.13,-17.87,-16.75,0,*5D
1513040499.71,25556,4.94,71954.5,-1.11,-17.55,-16.45,0,*50
1513040500.97,25557,4.94,71912.3,-1.13,-17.69,-16.51,0,*59
1513040502.21,25558,4.94,72016.5,-1.11,-17.83,-16.69,0,*5B
1513040503.47,25559,4.94,72004.0,-1.13,-18.65,-17.45,0,*50
1513040504.69,25560,4.94,71936.8,-1.11,-19.17,-18.11,0,*52
1513040505.94,25561,4.94,71934.8,-1.11,-19.61,-18.59,0,*5E
1513040507.17,25562,4.94,71938.8,-1.11,-19.31,-18.25,0,*53
1513040508.41,25563,4.88,71944.0,-1.13,-18.83,-17.73,0,*54
1513040509.63,25564,4.88,71956.5,-1.11,-19.17,-18.11,0,*56
1513040510.86,25565,4.88,71948.8,-1.13,-19.71,-18.69,0,*5A
1513040512.11,25566,4.88,71944.5,-1.15,-19.27,-18.21,0,*50
1513040513.35,25567,4.94,71998.0,-1.15,-18.99,-17.93,0,*53
1513040514.59,25568,4.94,71978.8,-1.15,-19.07,-18.01,0,*5E
1513040515.89,25569,4.94,71972.0,-1.13,-19.27,-18.31,0,*58
1513040517.13,25570,4.88,71930.0,-1.15,-19.61,-18.49,0,*5B
1513040518.38,25571,4.88,71974.8,-1.15,-19.61,-18.59,0,*5B
1513040519.63,25572,4.94,71918.8,-1.15,-19.85,-18.59,0,*52
1513040520.83,25573,4.88,71890.8,-1.17,-19.75,-18.65,0,*51
1513040522.07,25574,4.94,71914.8,-1.17,-19.81,-18.55,0,*5E
1513040523.3,25575,4.94,71946.0,-1.17,-19.31,-18.25,0,*53
1513040524.52,25576,4.88,71930.3,-1.17,-19.41,-18.25,0,*57
1513040525.74,25577,4.94,71946.3,-1.17,-19.31,-18.25,0,*51
1513040527.0,25578,4.94,71900.8,-1.17,-19.57,-18.35,0,*5F
1513040528.23,25579,4.94,71946.0,-1.17,-19.27,-18.25,0,*58
1513040529.45,25580,4.94,71986.8,-1.17,-19.41,-18.41,0,*5C
1513040530.69,25581,4.94,71972.3,-1.21,-19.17,-17.97,0,*5F
1513040531.94,25582,4.88,72016.3,-1.19,-18.89,-17.83,0,*54
1513040533.22,25583,4.88,71992.8,-1.19,-18.89,-17.79,0,*50
1513040534.42,25584,4.94,71998.8,-1.21,-18.73,-17.69,0,*58
1513040535.68,25585,4.88,72034.0,-1.19,-18.99,-17.93,0,*53
1513040536.91,25586,4.94,72044.0,-1.21,-18.89,-17.83,0,*5B
1513040538.16,25587,4.88,72046.3,-1.19,-18.73,-17.79,0,*51
1513040539.41,25588,4.94,72064.0,-1.19,-18.89,-17.83,0,*5E
1513040540.65,25589,4.94,72060.5,-1.21,-18.93,-17.87,0,*5B
1513040541.86,25590,4.88,72096.0,-1.21,-19.03,-17.87,0,*5B
1513040543.09,25591,4.94,72106.5,-1.21,-19.07,-18.01,0,*5F
1513040544.34,25592,4.88,72112.5,-1.19,-18.99,-17.93,0,*55
1513040545.57,25593,4.94,72114.3,-1.21,-19.03,-17.97,0,*59
1513040546.78,25594,4.94,72110.5,-1.21,-19.07,-18.11,0,*5B
1513040548.02,25595,4.94,72086.8,-1.21,-18.89,-17.83,0,*59
1513040549.27,25596,4.94,72066.5,-1.19,-18.35,-17.31,0,*5F
1513040550.52,25597,4.88,72060.0,-1.19,-18.21,-17.21,0,*5A
1513040551.75,25598,4.88,72066.5,-1.19,-18.83,-17.73,0,*5A
1513040552.98,25599,4.94,72090.8,-1.17,-19.27,-18.25,0,*56
1513040554.19,25600,4.94,72078.0,-1.17,-19.13,-18.21,0,*56
1513040555.42,25601,4.88,72058.0,-1.19,-19.13,-18.25,0,*5D
1513040556.64,25602,4.88,72034.8,-1.21,-19.23,-18.25,0,*56
1513040557.84,25603,4.94,72028.0,-1.17,-19.03,-18.07,0,*50
1513040559.07,25604,4.88,71992.3,-1.19,-19.03,-18.21,0,*5D
1513040560.35,25605,4.88,72040.3,-1.19,-19.31,-18.35,0,*58
1513040561.61,25606,4.88,72024.5,-1.19,-19.57,-18.49,0,*50
1513040562.84,25607,4.94,71980.3,-1.19,-19.75,-18.73,0,*58
1513040564.05,25608,4.94,72008.0,-1.21,-19.99,-19.17,0,*5D
1513040565.27,25609,4.88,71980.3,-1.19,-19.95,-19.03,0,*5E
1513040566.5,25610,4.94,72008.0,-1.21,-19.99,-18.93,0,*59
1513040567.74,25611,4.94,72050.8,-1.21,-19.81,-18.89,0,*5A
1513040568.99,25612,4.94,72052.3,-1.21,-19.61,-18.59,0,*5A
1513040570.25,25613,4.88,72036.3,-1.19,-19.61,-18.65,0,*5F
1513040571.46,25614,4.94,72030.5,-1.21,-19.71,-18.69,0,*5E
1513040572.67,25615,4.94,72100.8,-1.21,-19.71,-18.69,0,*5F
1513040573.9,25616,4.94,72088.8,-1.23,-19.71,-18.49,0,*5C
1513040575.16,25617,4.88,72088.0,-1.23,-19.65,-18.49,0,*58
1513040576.4,25618,4.94,72050.8,-1.23,-19.13,-18.07,0,*5C
1513040577.64,25619,4.94,72016.0,-1.23,-19.13,-18.21,0,*59
1513040578.89,25620,4.94,72094.3,-1.23,-19.41,-18.45,0,*56
1513040580.13,25621,4.94,72100.3,-1.23,-19.51,-18.49,0,*5A
1513040581.36,25622,4.94,72034.0,-1.21,-19.07,-17.97,0,*54
1513040582.6,25623,4.94,71918.8,-1.23,-18.79,-17.69,0,*5E
1513040583.83,25624,4.94,71812.3,-1.21,-18.17,-17.11,0,*5C
1513040585.03,25625,4.88,71734.5,-1.21,-18.11,-16.97,0,*54
1513040586.28,25626,4.94,71754.3,-1.19,-17.97,-16.93,0,*59
1513040587.54,25627,4.94,71794.5,-1.19,-17.93,-16.79,0,*58
1513040588.74,25628,4.94,71846.5,-1.17,-18.07,-16.89,0,*54
1513040590.0,25629,4.94,71872.0,-1.17,-17.97,-17.03,0,*50
1513040591.22,25630,4.88,71884.3,-1.17,-18.99,-17.93,0,*50
1513040592.43,25631,4.88,71852.8,-1.15,-18.83,-17.73,0,*56
1513040593.67,25632,4.88,71862.8,-1.15,-18.99,-17.79,0,*54
1513040594.88,25633,4.94,71900.8,-1.15,-18.79,-17.73,0,*51
1513040596.11,25634,4.88,71868.0,-1.17,-18.83,-17.79,0,*5B
1513040597.35,25635,4.88,71894.5,-1.15,-18.69,-17.79,0,*5C
1513040598.58,25636,4.94,71916.5,-1.15,-18.49,-17.55,0,*53
1513040599.87,25637,4.94,71940.8,-1.13,-18.59,-17.55,0,*55
1513040601.1,25638,4.94,71866.8,-1.13,-19.07,-18.17,0,*59
1513040602.33,25639,4.94,71878.3,-1.13,-19.07,-18.21,0,*5D
1513040603.63,25640,4.94,71888.0,-1.13,-19.27,-18.35,0,*54
1513040604.87,25641,4.88,71940.0,-1.13,-19.13,-18.21,0,*57
1513040606.17,25642,4.88,71952.5,-1.13,-19.23,-18.31,0,*56
1513040607.4,25643,4.94,71950.0,-1.13,-19.07,-18.17,0,*55
1513040608.67,25644,4.88,71932.8,-1.13,-18.93,-18.07,0,*5F
1513040609.93,25645,4.94,71946.3,-1.13,-18.79,-17.93,0,*58
1513040611.14,25646,4.94,71930.0,-1.15,-18.99,-18.17,0,*50
1513040612.37,25647,4.94,71938.8,-1.13,-18.99,-18.17,0,*57
1513040613.64,25648,4.88,71952.5,-1.13,-19.07,-18.31,0,*5A
1513040614.84,25649,4.94,71890.3,-1.11,-19.03,-18.17,0,*59
1513040616.1,25650,4.94,71826.3,-1.13,-19.07,-18.35,0,*57
1513040617.38,25651,4.88,71854.3,-1.15,-19.27,-18.35,0,*52
1513040618.64,25652,4.88,71838.0,-1.13,-19.57,-18.83,0,*5D
1513040619.87,25653,4.94,71774.0,-1.13,-19.51,-18.79,0,*5F
1513040621.14,25654,4.88,71848.8,-1.13,-19.27,-18.49,0,*5A
1513040622.39,25655,4.94,71816.8,-1.13,-19.41,-18.79,0,*58
1513040623.66,25656,4.94,71830.0,-1.15,-19.57,-18.93,0,*5E
1513040624.91,25657,4.88,71830.5,-1.17,-19.57,-18.89,0,*56
1513040626.12,25658,4.94,71894.3,-1.15,-19.51,-18.83,0,*57
1513040627.33,25659,4.94,71924.5,-1.15,-19.51,-18.79,0,*53
1513040628.56,25660,4.88,71950.8,-1.15,-19.41,-18.79,0,*58
1513040629.79,25661,4.94,71964.8,-1.17,-19.31,-18.73,0,*56
1513040631.01,25662,4.94,71974.3,-1.17,-19.47,-18.89,0,*51
1513040632.21,25663,4.94,71958.5,-1.17,-19.47,-18.99,0,*51
1513040633.45,25664,4.88,71988.0,-1.17,-19.41,-18.89,0,*51
1513040634.69,25665,4.94,71988.8,-1.17,-19.13,-18.55,0,*56
1513040635.91,25666,4.94,71936.0,-1.17,-19.57,-18.99,0,*55
1513040637.17,25667,4.94,71962.0,-1.19,-19.17,-18.55,0,*5E
1513040638.43,25668,4.88,71990.0,-1.19,-19.13,-18.55,0,*55
1513040639.68,25669,4.94,71982.3,-1.19,-19.13,-18.55,0,*54
1513040640.95,25670,4.94,71948.0,-1.19,-19.27,-18.73,0,*5F
1513040642.18,25671,4.94,71932.3,-1.19,-19.17,-18.65,0,*5A
1513040643.4,25672,4.94,71928.8,-1.21,-18.89,-18.41,0,*52
1513040644.63,25673,4.88,71996.8,-1.19,-19.03,-18.49,0,*53
1513040645.86,25674,4.88,71970.0,-1.19,-19.03,-18.65,0,*5A
1513040647.09,25675,4.94,71970.5,-1.21,-19.23,-18.69,0,*5E
1513040648.3,25676,4.94,72004.3,-1.21,-19.17,-18.69,0,*5A
1513040649.5,25677,4.94,71928.8,-1.21,-19.03,-18.45,0,*50
1513040650.73,25678,4.94,71900.5,-1.19,-19.03,-18.49,0,*58
1513040651.93,25679,4.94,71932.5,-1.21,-19.17,-18.79,0,*54
1513040653.16,25680,4.94,71952.5,-1.19,-18.99,-18.41,0,*55
1513040654.39,25681,4.94,71934.8,-1.21,-19.17,-18.89,0,*5C
1513040655.62,25682,4.94,71946.8,-1.21,-19.23,-18.79,0,*57
1513040656.82,25683,4.94,71824.5,-1.21,-19.17,-18.69,0,*50
1513040658.08,25684,4.94,71870.8,-1.21,-19.23,-18.89,0,*5E
1513040659.3,25685,4.88,71910.5,-1.21,-19.03,-18.55,0,*5C
1513040660.53,25686,4.94,71916.3,-1.21,-18.89,-18.41,0,*59
1513040661.78,25687,4.94,71898.0,-1.21,-18.93,-18.55,0,*56
1513040663.04,25688,4.88,71942.5,-1.21,-18.93,-18.55,0,*59
1513040664.24,25689,4.94,71974.5,-1.21,-18.73,-18.45,0,*57
1513040665.45,25690,4.88,72028.3,-1.21,-18.69,-18.45,0,*54
1513040666.69,25691,4.94,72016.3,-1.21,-18.93,-18.59,0,*5D
1513040667.93,25692,4.94,71890.5,-1.21,-18.93,-18.69,0,*5D
1513040669.13,25693,4.94,71646.8,-1.21,-19.07,-18.69,0,*50
1513040670.37,25694,4.94,71712.8,-1.23,-19.13,-18.65,0,*5C
1513040671.6,25695,4.94,71820.3,-1.23,-19.07,-18.65,0,*58
1513040672.84,25696,4.94,71824.0,-1.23,-19.07,-18.73,0,*5C
1513040674.07,25697,4.88,71892.8,-1.23,-18.99,-18.65,0,*5C
1513040675.27,25698,4.88,71946.0,-1.25,-18.99,-18.83,0,*5D
1513040676.5,25699,4.88,71964.5,-1.23,-19.13,-18.83,0,*59
1513040677.76,25700,4.88,71960.5,-1.23,-19.13,-18.93,0,*59
1513040678.99,25701,4.94,71966.5,-1.25,-19.07,-18.93,0,*5B
1513040680.19,25702,4.94,71964.8,-1.25,-18.99,-18.65,0,*57
1513040681.4,25703,4.88,71950.3,-1.25,-18.73,-18.65,0,*52
1513040682.6,25704,4.94,72006.0,-1.25,-18.73,-18.49,0,*5B
1513040683.8,25705,4.88,72004.0,-1.25,-18.65,-18.49,0,*5D
1513040685.05,25706,4.94,72022.8,-1.27,-18.69,-18.55,0,*5D
1513040686.25,25707,4.94,72006.3,-1.25,-18.73,-18.49,0,*58
1513040687.51,25708,4.94,71998.5,-1.27,-18.89,-18.69,0,*52
1513040688.76,25709,4.94,72026.8,-1.27,-18.89,-18.65,0,*5F
1513040690.01,25710,4.94,72040.3,-1.27,-18.83,-18.55,0,*5E
1513040691.27,25711,4.94,72034.0,-1.27,-18.69,-18.55,0,*5B
1513040692.53,25712,4.88,72058.3,-1.27,-18.69,-18.55,0,*58
1513040693.75,25713,4.94,72032.0,-1.27,-18.49,-18.25,0,*5C
1513040694.99,25714,4.88,72028.3,-1.27,-18.25,-18.11,0,*56
1513040696.22,25715,4.94,72022.8,-1.27,-17.87,-17.73,0,*5B
1513040697.5,25716,4.88,72042.0,-1.27,-17.93,-17.79,0,*57
1513040698.76,25717,4.88,72046.8,-1.25,-18.31,-18.31,0,*50
1513040700.01,25718,4.88,72020.8,-1.23,-18.59,-18.45,0,*54
1513040701.24,25719,4.88,71976.0,-1.25,-18.45,-18.35,0,*59
1513040702.44,25720,4.94,71998.5,-1.25,-18.65,-18.49,0,*5A
1513040703.67,25721,4.88,71988.5,-1.25,-18.93,-18.73,0,*5B
1513040704.91,25722,4.94,72000.3,-1.25,-19.13,-18.93,0,*5F
1513040706.14,25723,4.94,72048.8,-1.25,-19.13,-18.93,0,*5E
1513040707.36,25724,4.88,71980.5,-1.25,-18.93,-18.83,0,*51
1513040708.62,25725,4.88,71980.5,-1.23,-18.99,-18.93,0,*5D
1513040709.85,25726,4.88,71984.5,-1.25,-18.99,-18.93,0,*58
1513040711.05,25727,4.94,71994.8,-1.25,-19.07,-18.83,0,*5E
1513040712.28,25728,4.88,72010.8,-1.25,-18.93,-18.73,0,*52
1513040713.48,25729,4.88,72036.3,-1.25,-18.83,-18.65,0,*55
1513040714.68,25730,4.94,72064.5,-1.25,-18.79,-18.49,0,*56
1513040715.88,25731,4.94,72098.8,-1.25,-18.65,-18.45,0,*56
1513040717.08,25732,4.94,72014.0,-1.25,-17.87,-17.73,0,*5C
1513040718.37,25733,4.88,71788.5,-1.27,-17.97,-17.79,0,*54
1513040719.62,25734,4.94,71836.8,-1.25,-17.41,-17.25,0,*53
1513040720.91,25735,4.94,71884.3,-1.23,-17.59,-17.45,0,*5B
1513040722.14,25736,4.88,71900.3,-1.23,-17.83,-17.69,0,*51
1513040723.37,25737,4.94,71942.0,-1.23,-18.21,-18.17,0,*51
1513040724.6,25738,4.94,71966.5,-1.21,-18.69,-18.55,0,*56
1513040725.84,25739,4.94,71952.5,-1.23,-18.73,-18.59,0,*52
1513040727.09,25740,4.88,71956.0,-1.23,-18.73,-18.59,0,*5C
1513040728.32,25741,4.94,71988.3,-1.23,-18.79,-18.65,0,*58
1513040729.53,25742,4.88,71944.0,-1.25,-18.73,-18.49,0,*59
1513040730.77,25743,4.94,71930.0,-1.23,-18.79,-18.59,0,*55
1513040732.0,25744,4.88,71950.8,-1.23,-19.07,-18.99,0,*56
1513040733.26,25745,4.88,71906.3,-1.23,-18.93,-18.73,0,*5F
1513040734.52,25746,4.88,71898.0,-1.23,-18.45,-18.35,0,*55
1513040735.75,25747,4.94,71916.5,-1.25,-18.49,-18.35,0,*5E
1513040736.98,25748,4.94,71940.0,-1.23,-18.79,-18.65,0,*51
1513040738.21,25749,4.88,71966.5,-1.25,-18.59,-18.49,0,*5A
1513040739.46,25750,4.94,71972.0,-1.23,-18.59,-18.49,0,*54
1513040740.66,25751,4.94,71956.5,-1.25,-18.83,-18.65,0,*5A
1513040741.86,25752,4.94,71986.3,-1.25,-18.79,-18.65,0,*5C
1513040743.07,25753,4.94,72030.5,-1.25,-18.65,-18.49,0,*5E
1513040744.27,25754,4.88,71982.5,-1.25,-18.21,-18.21,0,*57
1513040745.48,25755,4.88,72000.3,-1.25,-18.65,-18.59,0,*59
1513040746.75,25756,4.94,72038.0,-1.23,-18.93,-18.73,0,*5D
1513040748.03,25757,4.94,71980.0,-1.23,-18.93,-18.93,0,*52
1513040749.25,25758,4.88,71950.0,-1.25,-18.93,-18.83,0,*5A
1513040750.46,25759,4.88,71950.0,-1.25,-18.79,-18.65,0,*57
1513040751.66,25760,4.94,71984.5,-1.25,-18.79,-18.73,0,*5A
1513040752.87,25761,4.94,71978.0,-1.25,-18.83,-18.73,0,*5E
1513040754.09,25762,4.88,72012.5,-1.23,-18.83,-18.83,0,*54
1513040755.35,25763,4.94,72008.3,-1.25,-18.93,-18.93,0,*53
1513040756.55,25764,4.88,72024.8,-1.25,-18.73,-18.73,0,*54
1513040757.75,25765,4.94,72014.5,-1.25,-18.79,-18.65,0,*58
1513040758.95,25766,4.88,71988.3,-1.25,-18.79,-18.83,0,*53
1513040760.15,25767,4.94,72054.0,-1.25,-18.83,-18.83,0,*57
1513040761.35,25768,4.88,72020.5,-1.25,-18.49,-18.49,0,*58
1513040762.6,25769,4.94,71990.5,-1.23,-18.49,-18.35,0,*54
1513040763.84,25770,4.94,71954.0,-1.23,-18.49,-18.45,0,*5B
1513040765.04,25771,4.88,71940.0,-1.25,-18.83,-18.73,0,*5F
1513040766.25,25772,4.94,71840.8,-1.25,-18.79,-18.73,0,*59
1513040767.5,25773,4.94,71888.0,-1.25,-18.93,-18.93,0,*52
1513040768.69,25774,4.88,71912.3,-1.25,-18.99,-19.07,0,*53
1513040769.92,25775,4.88,71918.8,-1.25,-18.93,-18.99,0,*5E
1513040771.11,25776,4.94,71912.0,-1.25,-18.99,-19.07,0,*51
1513040772.31,25777,4.94,71902.0,-1.25,-19.13,-19.07,0,*53
1513040773.6,25778,4.88,71902.8,-1.27,-19.31,-19.31,0,*5B
1513040774.86,25779,4.94,71908.8,-1.27,-19.27,-19.47,0,*5C
1513040776.1,25780,4.88,71912.8,-1.25,-19.27,-19.37,0,*5F
1513040777.36,25781,4.88,71932.0,-1.25,-19.23,-19.27,0,*5B
1513040778.6,25782,4.88,71952.8,-1.27,-19.17,-19.17,0,*5E
1513040779.89,25783,4.88,71944.5,-1.27,-19.27,-19.41,0,*5F
1513040781.18,25784,4.88,72018.3,-1.27,-19.31,-19.41,0,*5F
1513040782.41,25785,4.94,72012.5,-1.25,-19.27,-19.51,0,*5A
1513040783.65,25786,4.88,72000.3,-1.29,-19.27,-19.47,0,*52
1513040784.89,25787,4.88,71960.0,-1.29,-19.17,-19.31,0,*51
1513040786.19,25788,4.88,71986.8,-1.27,-19.27,-19.57,0,*53
1513040787.45,25789,4.88,71968.8,-1.29,-19.27,-19.31,0,*5C
1513040788.69,25790,4.94,71952.0,-1.29,-19.17,-19.31,0,*57
1513040789.93,25791,4.88,71968.0,-1.29,-19.27,-19.47,0,*54
1513040791.17,25792,4.94,71984.3,-1.29,-19.27,-19.47,0,*57
1513040792.42,25793,4.94,71972.0,-1.31,-19.31,-19.51,0,*5F
1513040793.69,25794,4.94,71924.3,-1.27,-19.17,-19.41,0,*5A
1513040794.92,25795,4.88,71936.0,-1.31,-19.37,-19.51,0,*5F
1513040796.18,25796,4.94,71970.5,-1.31,-19.47,-19.65,0,*5C
1513040797.41,25797,4.94,71950.0,-1.31,-19.37,-19.51,0,*5D
1513040798.67,25798,4.94,71980.5,-1.31,-19.37,-19.61,0,*51
1513040799.93,25799,4.88,71964.8,-1.31,-19.47,-19.61,0,*57
1513040801.19,25800,4.94,71944.3,-1.35,-19.37,-19.61,0,*5B
1513040802.45,25801,4.88,71956.8,-1.31,-19.23,-19.51,0,*58
1513040803.73,25802,4.88,71936.8,-1.31,-19.23,-19.31,0,*5D
1513040804.96,25803,4.94,71896.3,-1.31,-19.17,-19.37,0,*5D
1513040806.22,25804,4.94,71914.3,-1.35,-19.31,-19.47,0,*5D
1513040807.46,25805,4.88,71942.3,-1.35,-19.17,-19.37,0,*5F
1513040808.72,25806,4.94,71964.3,-1.35,-19.23,-19.47,0,*5C
1513040809.97,25807,4.94,71962.8,-1.31,-19.03,-19.23,0,*59
1513040811.19,25808,4.88,71968.5,-1.35,-19.03,-19.07,0,*54
1513040812.45,25809,4.94,71966.8,-1.35,-19.07,-19.31,0,*54
1513040813.69,25810,4.88,71954.0,-1.35,-19.17,-19.17,0,*59
1513040814.97,25811,4.88,72012.5,-1.35,-19.23,-19.31,0,*5B
1513040816.23,25812,4.88,72024.8,-1.35,-19.23,-19.51,0,*5E
1513040817.47,25813,4.94,72024.0,-1.35,-19.17,-19.37,0,*58
1513040818.73,25814,4.88,72034.3,-1.35,-19.23,-19.47,0,*5F
1513040819.99,25815,4.94,71994.0,-1.35,-19.17,-19.31,0,*58
1513040821.28,25816,4.88,71990.8,-1.39,-19.27,-19.41,0,*53
1513040822.55,25817,4.94,71982.8,-1.41,-19.31,-19.41,0,*5A
1513040823.77,25818,4.94,71996.5,-1.39,-18.99,-19.07,0,*5B
1513040825.06,25819,4.94,71972.8,-1.39,-18.31,-18.35,0,*58
1513040826.31,25820,4.94,72010.0,-1.39,-18.65,-18.89,0,*54
1513040827.58,25821,4.94,71996.3,-1.39,-18.89,-18.89,0,*57
1513040828.82,25822,4.88,72004.5,-1.39,-18.49,-18.73,0,*5D
1513040830.04,25823,4.94,72010.8,-1.35,-18.83,-19.03,0,*50
1513040831.29,25824,4.94,72012.0,-1.35,-18.69,-18.59,0,*5D
1513040832.54,25825,4.94,72036.3,-1.35,-18.89,-19.03,0,*5C
1513040833.78,25826,4.88,72024.3,-1.35,-19.07,-19.17,0,*5D
1513040835.01,25827,4.94,72050.5,-1.35,-19.03,-19.17,0,*58
1513040836.23,25828,4.94,72056.0,-1.35,-18.83,-18.83,0,*52
1513040837.49,25829,4.94,72076.3,-1.35,-18.83,-18.93,0,*52
1513040838.77,25830,4.88,72066.8,-1.35,-18.89,-18.93,0,*50
1513040840.03,25831,4.94,72086.3,-1.35,-18.25,-18.31,0,*5F
1513040841.25,25832,4.94,72058.8,-1.31,-18.25,-18.41,0,*5F
1513040842.51,25833,4.94,72062.5,-1.35,-18.25,-18.31,0,*5D
1513040843.75,25834,4.88,72032.0,-1.35,-18.69,-18.69,0,*5F
1513040845.0,25835,4.94,72010.0,-1.31,-18.31,-18.41,0,*5D
1513040846.29,25836,4.94,71976.8,-1.31,-18.31,-18.31,0,*59
1513040847.54,25837,4.94,71990.5,-1.31,-18.69,-18.59,0,*5B
1513040848.74,25838,4.94,71972.8,-1.29,-18.25,-18.21,0,*5A
1513040849.97,25839,4.94,72030.0,-1.29,-18.79,-18.55,0,*51
1513040851.22,25840,4.94,72026.0,-1.27,-18.35,-18.25,0,*5E
1513040852.45,25841,4.94,71928.0,-1.29,-18.55,-18.41,0,*55
1513040853.68,25842,4.88,71866.8,-1.27,-18.65,-18.49,0,*53
1513040854.92,25843,4.88,71882.0,-1.27,-18.89,-18.79,0,*53
1513040856.15,25844,4.88,71866.5,-1.29,-18.89,-18.69,0,*5B
1513040857.39,25845,4.88,71904.0,-1.27,-19.17,-19.17,0,*5A
1513040858.68,25846,4.94,71968.0,-1.27,-19.27,-19.27,0,*59
1513040859.97,25847,4.94,72008.0,-1.27,-19.31,-19.27,0,*5F
1513040861.26,25848,4.94,72022.3,-1.27,-19.27,-19.27,0,*57
1513040862.49,25849,4.88,72032.3,-1.27,-18.79,-18.65,0,*5B
1513040863.72,25850,4.94,72034.8,-1.27,-18.83,-18.79,0,*5B
1513040864.97,25851,4.94,72054.3,-1.27,-18.89,-18.99,0,*5E
1513040866.22,25852,4.88,71988.0,-1.27,-18.99,-18.89,0,*5D
1513040867.44,25853,4.94,71984.0,-1.27,-18.99,-19.03,0,*5F
1513040868.7,25854,4.94,71976.0,-1.27,-18.99,-18.89,0,*5B
1513040869.89,25855,4.94,71940.3,-1.25,-18.99,-19.07,0,*5F
1513040871.11,25856,4.88,71936.8,-1.25,-18.93,-19.07,0,*56
1513040872.35,25857,4.94,71940.3,-1.25,-19.13,-19.27,0,*5C
1513040873.55,25858,4.88,71896.5,-1.25,-19.37,-19.51,0,*54
1513040874.81,25859,4.94,71914.5,-1.25,-19.65,-19.65,0,*55
1513040876.04,25860,4.88,71916.8,-1.25,-19.71,-19.65,0,*5A
1513040877.31,25861,4.94,71910.8,-1.27,-19.81,-19.81,0,*5C
1513040878.54,25862,4.88,71880.5,-1.25,-19.85,-19.91,0,*58
1513040879.77,25863,4.94,71896.5,-1.27,-19.95,-19.95,0,*5E
1513040881.01,25864,4.94,71938.0,-1.27,-19.95,-19.95,0,*59
1513040882.21,25865,4.88,71990.8,-1.29,-19.75,-19.75,0,*56
1513040883.48,25866,4.88,72012.3,-1.27,-19.47,-19.57,0,*5A
1513040884.72,25867,4.94,72026.8,-1.29,-19.47,-19.57,0,*55
1513040885.94,25868,4.94,72042.0,-1.29,-19.75,-19.81,0,*50
1513040887.17,25869,4.88,72040.3,-1.29,-19.81,-19.75,0,*51
1513040888.43,25870,4.88,72054.5,-1.27,-19.81,-19.81,0,*5C
1513040889.66,25871,4.88,72046.8,-1.29,-19.81,-19.75,0,*58
1513040890.89,25872,4.88,72016.3,-1.29,-19.61,-19.71,0,*51
1513040892.12,25873,4.88,72038.5,-1.29,-19.61,-19.75,0,*54
1513040893.33,25874,4.94,72052.5,-1.29,-19.71,-19.75,0,*52
1513040894.55,25875,4.94,72060.8,-1.29,-19.81,-19.75,0,*5C
1513040895.8,25876,4.88,72054.3,-1.31,-19.75,-19.81,0,*56
1513040897.06,25877,4.88,72042.3,-1.35,-19.75,-19.85,0,*57
1513040898.34,25878,4.94,72038.3,-1.31,-19.65,-19.65,0,*53
1513040899.63,25879,4.88,72050.0,-1.35,-19.61,-19.65,0,*52
1513040900.87,25880,4.88,72020.0,-1.31,-19.37,-19.37,0,*54
1513040902.15,25881,4.88,72056.8,-1.35,-19.23,-19.31,0,*52
1513040903.43,25882,4.88,72074.8,-1.31,-19.23,-19.31,0,*55